Weather Roundup
Issued by NWS Chicago, IL

Home | Current Version | Previous Version | Graphics & Text | Print | Product List | Glossary On
Versions: 1 2 3 4 5 6 7 8 9 10 11 12 13 14 15 16 17 18 19 20 21 22 23 24 25 26 27 28 29 30 31 32 33 34 35 36 37 38 39 40 41 42 43 44 45 46 47 48 49 50
000
NZUS59 KLOT 070508
HRRLOT

CHICAGO AREA WEATHER ROUNDUP
NATIONAL WEATHER SERVICE CHICAGO/ROMEOVILLE IL
1200 AM CDT TUE JUL 07 2015

NOTE: "FAIR" INDICATES FEW OR NO CLOUDS BELOW 12,000 FEET WITH NO
SIGNIFICANT WEATHER AND/OR OBSTRUCTIONS TO VISIBILITY.

* THESE STATIONS ARE NOT UNDER NWS QUALITY CONTROL. THEY ALSO MAY NOT
  REPORT WEATHER SUCH AS PRECIPITATION OR FOG.

ILZ005-006-012>014-019>023-070600-
NORTHEAST ILLINOIS

CITY           SKY/WX    TMP DP  RH WIND       PRES   REMARKS
OHARE          RAIN      71  69  93 W12       29.85F FOG
MIDWAY         LGT RAIN  73  69  87 W8        29.86R
AURORA         CLOUDY    72  68  87 SE5       29.86F
LANSING*       CLOUDY    75  69  82 S6        29.86S
JOLIET*        LGT RAIN  73  72  96 CALM      29.86F
WAUKEGAN       LGT RAIN  71  69  93 SW9       29.84F
DUPAGE AIRPORT LGT RAIN  70  68  93 CALM      29.85F
WHEELING       RAIN      71  68  90 W8        29.86F FOG
KANKAKEE*      CLOUDY    76  72  87 S9G17     29.87S
MORRIS*        DRIZZLE   71  70  95 CALM      29.84S
LEWIS AIRPORT* LGT RAIN  71  71  99 NW5       29.86F
NORTHERLY IS     N/A     72  68  87 W7          N/A
$$

WIZ051-052-058>065-066-070>072-070600-
SOUTHEAST WISCONSIN

CITY           SKY/WX    TMP DP  RH WIND       PRES   REMARKS
MILWAUKEE      HVY RAIN  72  68  87 SW15G25   29.83R FOG
KENOSHA*       CLOUDY    73  69  87 SW10      29.85F
RACINE*        LGT RAIN  73  69  87 SW9       29.85S
BURLINGTON     RAIN      69  68  94 SW5       29.85S
WAUKESHA       HVY RAIN  70  68  94 SW14      29.83S
WEST BEND      RAIN      68  63  83 NW8       29.83R
$$

INZ001>003-010>013-019-020-070600-
NORTHWEST INDIANA

CITY           SKY/WX    TMP DP  RH WIND       PRES   REMARKS
GARY*          CLOUDY   N/A N/A N/A S5        29.86S
MICHIGAN CITY* NOT AVBL
RENSSELAER*    NOT AVBL
VALPARAISO     CLOUDY    76  72  87 S8        29.88S
$$

LMZ740>746-070600-
SOUTHERN LAKE MICHIGAN

STATION/POSITION TIME  SKY/WX   TEMP WIND        PRES    VSBY
                                AIR  DIR/SP/G
                 (UTC)          (F)  (DEG/KT/KT) (MB)    (MI)
HARRISON CRIB    0400            73  200/ 18/ 24   N/A
BURNHAM HARBOR   0500            72  240/  6/ 10   N/A
CALUMET HARBOR   0400            73  190/  5/  7   N/A
BURNS HARBOR     0400            74  240/ 10/ 15 1011.9F
MICHIGAN CITY    0400            76  160/ 12/ 15   N/A
$$

ABBREVIATIONS USED IN REMARKS
   TC - TEMPERATURE IN CELSIUS
  WCI - WIND CHILL INDEX
   HX - HEAT INDEX
  VSB - VISIBILITY
$$



USA.gov is the U.S. government's official web portal to all federal, state and local government web resources and services.